Indianapolis, IN

9:41 PM EDT on July 25, 2016 (GMT -0400)
Indianapolis International

Weather History for KIND - September, 2012

Change the Weather History Date:

Sunday, September 30, 2012

  Actual Average Record
Temperature  
Mean Temperature 59 °F 61 °F  
Max Temperature 70 °F 72 °F 89 °F (1971)
Min Temperature 48 °F 50 °F 30 °F (1899)
Degree Days  
Heating Degree Days 6 6  
Month to date heating degree days 88 70  
Since 1 July heating degree days 88 75  
Cooling Degree Days 0 2  
Month to date cooling degree days 102 128  
Year to date cooling degree days 1530 1049  
Growing Degree Days 9 (Base 50)    
Moisture  
Dew Point 46 °F    
Average Humidity 67    
Maximum Humidity 93    
Minimum Humidity 40    
Precipitation  
Precipitation 0.00 in 0.11 in 1.88 in (1902)
Month to date precipitation 7.73 3.12  
Year to date precipitation 30.22 32.45  
Snow  
Snow 0.00 in 0.00 in 0.00 in ()
Month to date snowfall T 0.0  
Since 1 July snowfall T 0.0  
Since 1 September snowfall T 0.0  
Snow Depth 0.00 in    
Sea Level Pressure  
Sea Level Pressure 29.89 in    
Wind  
Wind Speed 7 mph (NNE)    
Max Wind Speed 16 mph    
Max Gust Speed 20 mph    
Visibility 10 miles    
Events Fog    
T = Trace of Precipitation, MM = Missing Value Source: NWS Daily Summary

Daily Weather History Graph

Daily Weather History Graph

Search for Another Location

Airport or City:

Trip Planner

Search our weather history database for the weather conditions in past years. The results will help you decide how hot, cold, wet, or windy it might be!

Date:

Astronomy

Sep. 30, 2012 Rise Set
Actual Time 7:40 AM EDT 7:28 PM EDT
Civil Twilight 7:14 AM EDT 7:55 PM EDT
Nautical Twilight 6:42 AM EDT 8:26 PM EDT
Astronomical Twilight 6:11 AM EDT 8:58 PM EDT
Moon 7:32 PM EDT (9/30) 8:10 AM EDT (9/30)
Length of Visible Light 12h 41m
Length of Day
11h 47m
Full, 100% of the Moon is Illuminated
Sep 30
Full
Oct 8
Last Quarter
Oct 15
New
Oct 21
First Quarter
Oct 29
Full

Hourly Weather History & Observations

Time (EDT) Temp. Dew Point Humidity Pressure Visibility Wind Dir Wind Speed Gust Speed Precip Events Conditions
12:54 AM 55.0 °F 48.0 °F 77% 29.95 in 10.0 mi Calm Calm - N/A   Clear
1:54 AM 54.0 °F 48.0 °F 80% 29.93 in 10.0 mi NE 4.6 mph - N/A   Clear
2:54 AM 54.0 °F 46.9 °F 77% 29.92 in 10.0 mi Calm Calm - N/A   Clear
3:54 AM 54.0 °F 46.9 °F 77% 29.91 in 10.0 mi Calm Calm - N/A   Clear
4:54 AM 52.0 °F 46.9 °F 83% 29.90 in 10.0 mi Calm Calm - N/A   Clear
5:54 AM 52.0 °F 46.9 °F 83% 29.88 in 10.0 mi WSW 5.8 mph - N/A   Clear
6:54 AM 48.9 °F 46.0 °F 90% 29.87 in 10.0 mi Calm Calm - N/A   Scattered Clouds
7:54 AM 48.0 °F 46.0 °F 93% 29.87 in 7.0 mi Calm Calm - N/A Fog Patches of Fog
8:54 AM 55.0 °F 46.9 °F 74% 29.89 in 10.0 mi North 4.6 mph - N/A   Scattered Clouds
9:54 AM 57.2 °F 48.2 °F 72% 29.90 in 10.0 mi NNE 6.9 mph - N/A   Scattered Clouds
10:54 AM 64.0 °F 48.0 °F 56% 29.91 in 10.0 mi NNW 6.9 mph - N/A   Scattered Clouds
11:54 AM 66.0 °F 46.9 °F 50% 29.91 in 10.0 mi North 10.4 mph - N/A   Scattered Clouds
12:54 PM 68.0 °F 48.0 °F 49% 29.91 in 10.0 mi NNE 9.2 mph - N/A   Scattered Clouds
1:54 PM 68.0 °F 48.9 °F 50% 29.90 in 10.0 mi North 9.2 mph - N/A   Scattered Clouds
2:54 PM 69.1 °F 48.0 °F 47% 29.87 in 10.0 mi North 11.5 mph - N/A   Scattered Clouds
3:54 PM 69.1 °F 45.0 °F 42% 29.86 in 10.0 mi NE 8.1 mph - N/A   Scattered Clouds
4:54 PM 68.0 °F 44.1 °F 42% 29.86 in 10.0 mi NE 9.2 mph - N/A   Mostly Cloudy
5:54 PM 66.9 °F 44.1 °F 44% 29.87 in 10.0 mi NNE 8.1 mph - N/A   Mostly Cloudy
6:54 PM 64.9 °F 45.0 °F 48% 29.88 in 10.0 mi NE 12.7 mph - N/A   Overcast
7:54 PM 63.0 °F 44.1 °F 50% 29.88 in 10.0 mi NE 9.2 mph - N/A   Overcast
8:54 PM 60.1 °F 45.0 °F 57% 29.88 in 10.0 mi NNE 8.1 mph - N/A   Overcast
9:54 PM 59.0 °F 43.0 °F 55% 29.89 in 10.0 mi NE 9.2 mph - N/A   Overcast
10:54 PM 57.9 °F 44.1 °F 60% 29.90 in 10.0 mi NE 6.9 mph - N/A   Overcast
11:54 PM 57.2 °F 44.6 °F 63% 29.91 in 10.0 mi ENE 6.9 mph - N/A   Overcast